This is the latest recevied weather packets stored in our database for station/object SP6KBU-12. If no packets are shown the sender has not sent any weather packets the latest 10 day(s).
| Time | Temp. | Humidity | Pressure | Rain* | Wind** | Luminosity | Snow |
|---|---|---|---|---|---|---|---|
| 1777683639 | 11.11° C | 46% | 1026.9 hPa | - | - | - | - |
| 1777683382 | 11.11° C | 46% | 1026.9 hPa | - | - | - | - |
| 1777682482 | 11.67° C | 46% | 1027 hPa | - | - | - | - |
| 1777681582 | 11.67° C | 46% | 1027.1 hPa | - | - | - | - |
| 1777680682 | 11.67° C | 46% | 1027.2 hPa | - | - | - | - |
| 1777679781 | 11.67° C | 45% | 1027.2 hPa | - | - | - | - |
| 1777678881 | 11.67° C | 44% | 1027.2 hPa | - | - | - | - |
| 1777677981 | 11.67° C | 45% | 1027.3 hPa | - | - | - | - |
| 1777677080 | 12.22° C | 44% | 1027.2 hPa | - | - | - | - |
| 1777676180 | 12.22° C | 44% | 1027.2 hPa | - | - | - | - |
| 1777675279 | 11.67° C | 44% | 1027.4 hPa | - | - | - | - |
| 1777674388 | 11.67° C | 43% | 1027.4 hPa | - | - | - | - |
| 1777673480 | 12.22° C | 41% | 1027.5 hPa | - | - | - | - |
| 1777672580 | 12.78° C | 39% | 1027.5 hPa | - | - | - | - |
| 1777671680 | 12.78° C | 39% | 1027.6 hPa | - | - | - | - |
| 1777670779 | 13.33° C | 39% | 1027.5 hPa | - | - | - | - |
| 1777669879 | 13.33° C | 38% | 1027.6 hPa | - | - | - | - |
| 1777668979 | 12.78° C | 37% | 1027.7 hPa | - | - | - | - |
| 1777668079 | 13.33° C | 35% | 1027.7 hPa | - | - | - | - |
| 1777667179 | 13.89° C | 34% | 1027.7 hPa | - | - | - | - |
| 1777666278 | 14.44° C | 33% | 1027.7 hPa | - | - | - | - |
| 1777665377 | 15° C | 34% | 1027.7 hPa | - | - | - | - |
| 1777664478 | 15° C | 35% | 1027.7 hPa | - | - | - | - |
| 1777663578 | 15° C | 33% | 1027.7 hPa | - | - | - | - |
| 1777662676 | 15° C | 35% | 1027.5 hPa | - | - | - | - |
* Rain since midnight (hover to see other rain measurements)
** Current wind speed in m/s (hover to see current wind gust speed)